Погода в Богдановке

Россия / Омская область     55°02′15″N   74°08′40″E
темп.,
°C
ветер,
м/с
пор.,
м/с
влажн.,
%
обл.,
%
осадки,
мм/ч
давл.,
гПа
погр.,
м
23 января, сб
сб2300:00−24юз249898 0.1 1022125
03:00−24юз239895 0.1 102388
06:00−25зюз229893 0.1 102420
09:00−27сз249891 0.1 1026111
12:00−26ссз239792 0.1 1028121
15:00−29сз359543 0.0 1030226
18:00−30сз359694 0.1 1031101
21:00−34сз3495100 0.0 103676
24 января, вс
вс2400:00−37сз349594 0.0 103855
03:00−38сз34970 0.0 103746
06:00−39сз349713 0.0 103938
09:00−38сз239595 0.0 104068
12:00−38зсз239515 0.0 104497
15:00−33зсз239295 0.0 1042227
18:00−38ссз119771 0.0 104319
21:00−38ююз229620 0.0 104619
25 января, пн
пн2500:00−35ююв349557 0.0 104688
03:00−33ююв4695100 0.0 1044168
06:00−37вюв229559 0.0 104526
09:00−29юв5997100 0.1 1040264
12:00−33юв3495100 0.0 1045161
15:00−31вюв3595100 0.0 1044205
18:00−25юв4698100 0.5 1035247
21:00−25вюв3597100 0.1 1035156
26 января, вт
вт2600:00−34вюв379550 0.0 1043145
03:00−34вюв369588 0.0 104399
06:00−28юв229879 0.0 103519
09:00−25ююв239792 0.0 103589
12:00−30вюв469379 0.0 1044228
15:00−29вюв469397 0.0 1044235
18:00−14ю5895100 0.9 1029257
21:00−31вюв489254 0.0 1044174
27 января, ср
ср2700:00−4зюз5109598 0.9 1025338
03:00−29юв489361 0.0 1043226
06:00−28ююв589571 0.0 1042232
09:00−7зюз71393100 0.1 1023487
12:00−23ююв51097100 0.5 1039262
15:00−19ю5997100 0.5 1036267
18:00−4з61192100 0.2 1022729
21:00−4зсз61292100 0.1 1023599